| time (UTC) | temp F | wind direction | speed MPH | gust MPH | rain 1hr in | rain 24hr in | rain mn in | humidity % | barometer mb |
| 20260505011546 | 81 | 242 | 1.0 | 9.0 | 0.00 | 0.00 | 0.00 | 18 | 1001.1 |
| 20260505010036 | 81 | 232 | 2.0 | 9.0 | 0.00 | 0.00 | 0.00 | 17 | 1000.8 |
| 20260505004533 | 81 | 236 | 2.0 | 9.0 | 0.00 | 0.00 | 0.00 | 17 | 1001.3 |
| 20260505003032 | 82 | 238 | 2.0 | 11.0 | 0.00 | 0.00 | 0.00 | 17 | 1001.9 |
| 20260505001531 | 82 | 226 | 4.0 | 12.0 | 0.00 | 0.00 | 0.00 | 16 | 1001.8 |
| 20260505000031 | 83 | 252 | 0.0 | 9.0 | 0.00 | 0.00 | 0.00 | 16 | 1001.7 |
| 20260504234531 | 83 | 233 | 3.0 | 10.0 | 0.00 | 0.00 | 0.00 | 16 | 1001.9 |
| 20260504233029 | 83 | 235 | 0.0 | 11.0 | 0.00 | 0.00 | 0.00 | 16 | 1001.9 |
| 20260504231529 | 85 | 238 | 4.0 | 16.0 | 0.00 | 0.00 | 0.00 | 14 | 1001.8 |
| 20260504230026 | 85 | 223 | 1.0 | 8.0 | 0.00 | 0.00 | 0.00 | 14 | 1001.9 |
| 20260504224534 | 85 | 250 | 1.0 | 13.0 | 0.00 | 0.00 | 0.00 | 14 | 1002.0 |
| 20260504223024 | 86 | 238 | 1.0 | 9.0 | 0.00 | 0.00 | 0.00 | 13 | 1002.3 |
| 20260504221523 | 85 | 228 | 5.0 | 15.0 | 0.00 | 0.00 | 0.00 | 14 | 1002.6 |
| 20260504220020 | 84 | 232 | 5.0 | 12.0 | 0.00 | 0.00 | 0.00 | 14 | 1002.8 |
| 20260504214523 | 84 | 224 | 5.0 | 14.0 | 0.00 | 0.00 | 0.00 | 14 | 1003.0 |
| 20260504213020 | 84 | 241 | 4.0 | 15.0 | 0.00 | 0.00 | 0.00 | 14 | 1003.3 |
| 20260504211517 | 85 | 240 | 4.0 | 16.0 | 0.00 | 0.00 | 0.00 | 13 | 1003.5 |
| 20260504210014 | 84 | 219 | 4.0 | 14.0 | 0.00 | 0.00 | 0.00 | 14 | 1003.6 |
| 20260504204517 | 84 | 240 | 4.0 | 12.0 | 0.00 | 0.00 | 0.00 | 15 | 1004.1 |
| 20260504203007 | 83 | 240 | 2.0 | 7.0 | 0.00 | 0.00 | 0.00 | 16 | 1004.2 |
| 20260504201505 | 83 | 238 | 1.0 | 5.0 | 0.00 | 0.00 | 0.00 | 17 | 1004.5 |
| 20260504200004 | 82 | 229 | 1.0 | 15.0 | 0.00 | 0.00 | 0.00 | 18 | 1004.7 |
| 20260504194502 | 84 | 242 | 1.0 | 7.0 | 0.00 | 0.00 | 0.00 | 17 | 1005.0 |
| 20260504193101 | 85 | 261 | 2.0 | 12.0 | 0.00 | 0.00 | 0.00 | 17 | 1005.0 |
| 20260504191601 | 82 | 238 | 2.0 | 13.0 | 0.00 | 0.00 | 0.00 | 17 | 1005.2 |
| 20260504190057 | 82 | 242 | 3.0 | 12.0 | 0.00 | 0.00 | 0.00 | 18 | 1005.5 |
| 20260504184556 | 82 | 240 | 0.0 | 4.0 | 0.00 | 0.00 | 0.00 | 19 | 1005.7 |
| 20260504183053 | 80 | 236 | 0.0 | 14.0 | 0.00 | 0.00 | 0.00 | 20 | 1005.8 |
| 20260504181552 | 79 | 236 | 1.0 | 13.0 | 0.00 | 0.00 | 0.00 | 20 | 1006.1 |
| 20260504180105 | 81 | 245 | 1.0 | 5.0 | 0.00 | 0.00 | 0.00 | 20 | 1006.5 |
| 20260504174549 | 79 | 238 | 3.0 | 11.0 | 0.00 | 0.00 | 0.00 | 20 | 1006.3 |
| 20260504173058 | 78 | 238 | 1.0 | 10.0 | 0.00 | 0.00 | 0.00 | 21 | 1006.5 |
| 20260504171545 | 79 | 241 | 1.0 | 9.0 | 0.00 | 0.00 | 0.00 | 22 | 1006.7 |
| 20260504081533 | 66 | 221 | 0.0 | 2.0 | 0.00 | 0.00 | 0.00 | 47 | 1005.9 |
| 20260504050010 | 71 | 221 | 0.0 | 0.0 | 0.00 | 0.00 | 0.00 | 38 | 1006.8 |
| 20260504044514 | 72 | 221 | 0.0 | 0.0 | 0.00 | 0.00 | 0.00 | 37 | 1006.8 |
| 20260504043014 | 73 | 221 | 0.0 | 0.0 | 0.00 | 0.00 | 0.00 | 36 | 1006.6 |
| 20260504041533 | 74 | 221 | 0.0 | 0.0 | 0.00 | 0.00 | 0.00 | 34 | 1006.8 |
| 20260504040017 | 74 | 221 | 0.0 | 1.0 | 0.00 | 0.00 | 0.00 | 33 | 1006.8 |
| 20260504034510 | 75 | 221 | 0.0 | 0.0 | 0.00 | 0.00 | 0.00 | 31 | 1006.9 |
| 20260504033008 | 75 | 221 | 0.0 | 0.0 | 0.00 | 0.00 | 0.00 | 29 | 1006.9 |
| 20260504031508 | 75 | 221 | 0.0 | 0.0 | 0.00 | 0.00 | 0.00 | 28 | 1006.9 |
| 20260504030007 | 76 | 221 | 0.0 | 0.0 | 0.00 | 0.00 | 0.00 | 27 | 1007.0 |
| 20260504024506 | 76 | 221 | 0.0 | 0.0 | 0.00 | 0.00 | 0.00 | 27 | 1007.0 |
| 20260504023006 | 77 | 221 | 0.0 | 1.0 | 0.00 | 0.00 | 0.00 | 26 | 1006.8 |
| 20260504021506 | 77 | 221 | 0.0 | 2.0 | 0.00 | 0.00 | 0.00 | 25 | 1006.6 |
| 20260504020009 | 78 | 221 | 0.0 | 3.0 | 0.00 | 0.00 | 0.00 | 25 | 1006.6 |
| 20260504014504 | 78 | 220 | 0.0 | 3.0 | 0.00 | 0.00 | 0.00 | 24 | 1006.3 |
| 20260504013004 | 78 | 219 | 0.0 | 4.0 | 0.00 | 0.00 | 0.00 | 23 | 1006.4 |